Location: Buisson
(44.2787°N, 4.9969°E)
Time: 01:04:30
(UTC+00:00)

NOSS 3-4 (C) - Pass Details

Date: 18 April 2021
Orbit: 873 x 1339 km, 63.4° (Epoch: 06 May)

Event Time Altitude Azimuth Distance (km) Brightness Sun altitude
Rises 04:00:56 0° 318° (NW) 3,870 6.5 -9.3°
Reaches altitude 10° 04:03:35 10° 312° (NW) 2,978 5.8 -8.8°
Maximum altitude 04:10:19 46° 242° (WSW) 1,561 4.2 -7.7°
Drops below altitude 10° 04:17:44 10° 173° (S) 3,265 6.1 -6.5°
Sets 04:20:46 0° 167° (SSE) 4,275 6.8 -6.0°
